FDX898 KPHL-KIND

Flight info

Callsign FDX898
Flight time N/A
Altitude 32000
Route MXE PENSY J110 AIR RINTE SNKPT2
Aircraft B748/H-SDE3FGHIM1M2RWXY/LB1

Departure

Time 2026-05-07 13:59
Airport Philadelphia International Airport (KPHL)

Arrival

Time N/A
Airport Indianapolis International Airport (KIND)
Time Latitude Longitude Altitude Speed Heading
2026-05-07 13:45 39.86184 -75.25154 35 ft 0 kts 327°
2026-05-07 13:54 39.86186 -75.25156 35 ft 1 kts 329°
2026-05-07 13:54 39.86205 -75.25160 35 ft 4 kts
2026-05-07 13:54 39.86232 -75.25132 35 ft 6 kts 62°
2026-05-07 13:55 39.86247 -75.25050 35 ft 14 kts 77°
2026-05-07 13:55 39.86277 -75.24893 35 ft 17 kts 72°
2026-05-07 13:55 39.86326 -75.24840 35 ft 10 kts 14°
2026-05-07 13:55 39.86415 -75.24851 35 ft 17 kts 348°
2026-05-07 13:56 39.86561 -75.24888 35 ft 24 kts 349°
2026-05-07 13:56 39.86700 -75.24908 35 ft 10 kts 24°
2026-05-07 13:56 39.86735 -75.24811 35 ft 18 kts 74°
2026-05-07 13:56 39.86777 -75.24604 35 ft 29 kts 75°
2026-05-07 13:57 39.86838 -75.24327 35 ft 34 kts 72°
2026-05-07 13:57 39.86895 -75.24016 35 ft 37 kts 77°
2026-05-07 13:57 39.86965 -75.23676 35 ft 39 kts 73°
2026-05-07 13:57 39.86999 -75.23466 35 ft 14 kts 109°
2026-05-07 13:58 39.86943 -75.23416 35 ft 8 kts 186°
2026-05-07 13:58 39.86885 -75.23493 35 ft 15 kts 248°
2026-05-07 13:58 39.86858 -75.23626 35 ft 15 kts 256°
2026-05-07 13:58 39.86829 -75.23778 35 ft 28 kts 256°
2026-05-07 13:59 39.86691 -75.24461 36 ft 129 kts 255°
2026-05-07 13:59 39.86375 -75.25969 208 ft 205 kts 258°
2026-05-07 13:59 39.85870 -75.27783 1283 ft 220 kts 253°
2026-05-07 13:59 39.85725 -75.29841 1857 ft 235 kts 284°
2026-05-07 14:00 39.86382 -75.31782 2441 ft 238 kts 302°
2026-05-07 14:00 39.87179 -75.33729 2967 ft 247 kts 297°
2026-05-07 14:00 39.87767 -75.35844 3603 ft 250 kts 287°
2026-05-07 14:00 39.88094 -75.38067 4247 ft 249 kts 282°
2026-05-07 14:01 39.88374 -75.40268 5023 ft 239 kts 281°
2026-05-07 14:01 39.88639 -75.42356 6105 ft 239 kts 278°
2026-05-07 14:01 39.88914 -75.44500 7230 ft 241 kts 277°
2026-05-07 14:01 39.89197 -75.46652 8325 ft 242 kts 276°
2026-05-07 14:02 39.89474 -75.48819 9358 ft 243 kts 275°
2026-05-07 14:02 39.89751 -75.50993 10368 ft 245 kts 274°
2026-05-07 14:02 39.90035 -75.53226 11102 ft 256 kts 274°
2026-05-07 14:02 39.90333 -75.55576 11738 ft 271 kts 274°
2026-05-07 14:03 39.90652 -75.58076 12345 ft 288 kts 274°
2026-05-07 14:03 39.90991 -75.60734 12917 ft 306 kts 274°
2026-05-07 14:03 39.91350 -75.63552 13613 ft 321 kts 274°
2026-05-07 14:03 39.91710 -75.66456 14488 ft 327 kts 272°
2026-05-07 14:04 39.91760 -75.69409 15464 ft 327 kts 265°
2026-05-07 14:04 39.91701 -75.72389 16456 ft 330 kts 265°
2026-05-07 14:04 39.91644 -75.75390 17507 ft 332 kts 264°
2026-05-07 14:04 39.91585 -75.78411 18504 ft 335 kts 264°
2026-05-07 14:05 39.91523 -75.81458 19362 ft 338 kts 264°
2026-05-07 14:05 39.91461 -75.84492 20204 ft 340 kts 264°
2026-05-07 14:05 39.91398 -75.87580 21085 ft 342 kts 264°
2026-05-07 14:05 39.91333 -75.90683 21927 ft 343 kts 264°
2026-05-07 14:06 39.91267 -75.93798 22782 ft 345 kts 263°
2026-05-07 14:06 39.91200 -75.96934 23591 ft 347 kts 263°
2026-05-07 14:06 39.91132 -76.00086 24250 ft 349 kts 263°
2026-05-07 14:06 39.91062 -76.03251 24884 ft 350 kts 263°
2026-05-07 14:07 39.90992 -76.06432 25510 ft 352 kts 263°
2026-05-07 14:07 39.90920 -76.09624 26133 ft 354 kts 263°
2026-05-07 14:07 39.90846 -76.12839 26758 ft 356 kts 263°
2026-05-07 14:07 39.90773 -76.16068 27431 ft 358 kts 263°
2026-05-07 14:08 39.90767 -76.19322 28077 ft 362 kts 266°
2026-05-07 14:08 39.90917 -76.22610 28783 ft 362 kts 267°
2026-05-07 14:08 39.91057 -76.25857 29803 ft 356 kts 266°
2026-05-07 14:08 39.91187 -76.29013 30655 ft 352 kts 267°
2026-05-07 14:09 39.91322 -76.32216 31438 ft 346 kts 266°
2026-05-07 14:09 39.91454 -76.35279 31882 ft 341 kts 266°
2026-05-07 14:09 39.91582 -76.38356 31967 ft 340 kts 266°
2026-05-07 14:10 39.91833 -76.44424 31972 ft 333 kts 266°
2026-05-07 14:10 39.92078 -76.50452 32000 ft 333 kts 266°
2026-05-07 14:11 39.92323 -76.56467 31978 ft 332 kts 266°
2026-05-07 14:11 39.92563 -76.62480 31980 ft 332 kts 266°
2026-05-07 14:12 39.92773 -76.67820 31993 ft 332 kts 266°
2026-05-07 14:12 39.93006 -76.73769 32000 ft 332 kts 266°
2026-05-07 14:13 39.93241 -76.79776 31997 ft 332 kts 266°
2026-05-07 14:13 39.93472 -76.85788 31993 ft 332 kts 266°
2026-05-07 14:14 39.93700 -76.91784 31997 ft 330 kts 265°
2026-05-07 14:14 39.93923 -76.97763 31995 ft 330 kts 265°
2026-05-07 14:15 39.94143 -77.03741 31994 ft 330 kts 265°
2026-05-07 14:15 39.94360 -77.09721 32001 ft 331 kts 265°
2026-05-07 14:16 39.94574 -77.15708 32005 ft 331 kts 265°
2026-05-07 14:16 39.94784 -77.21693 32001 ft 331 kts 265°
2026-05-07 14:17 39.94992 -77.27661 32002 ft 328 kts 265°
2026-05-07 14:17 39.95191 -77.33557 32006 ft 327 kts 265°
2026-05-07 14:18 39.95390 -77.39487 32005 ft 327 kts 265°
2026-05-07 14:18 39.95586 -77.45416 32001 ft 327 kts 265°
2026-05-07 14:19 39.95776 -77.51348 32004 ft 328 kts 265°
2026-05-07 14:19 39.95964 -77.57286 32006 ft 328 kts 265°
2026-05-07 14:20 39.96149 -77.63216 32006 ft 325 kts 265°
2026-05-07 14:20 39.96328 -77.69105 32007 ft 325 kts 265°
2026-05-07 14:21 39.96505 -77.74989 32008 ft 325 kts 265°
2026-05-07 14:21 39.96677 -77.80834 32002 ft 324 kts 265°
2026-05-07 14:22 39.96848 -77.86724 32007 ft 325 kts 265°
2026-05-07 14:22 39.97028 -77.92615 31989 ft 325 kts 266°
2026-05-07 14:23 39.97202 -77.98499 32003 ft 324 kts 265°
2026-05-07 14:23 39.97362 -78.04345 32005 ft 322 kts 265°
2026-05-07 14:24 39.97522 -78.10155 32002 ft 323 kts 265°
2026-05-07 14:24 39.97679 -78.15998 32003 ft 323 kts 265°
2026-05-07 14:25 39.97833 -78.21851 31989 ft 323 kts 265°
2026-05-07 14:25 39.97984 -78.27699 31987 ft 323 kts 265°
2026-05-07 14:26 39.98133 -78.33552 31989 ft 323 kts 265°
2026-05-07 14:26 39.98278 -78.39404 31991 ft 323 kts 265°
2026-05-07 14:27 39.98420 -78.45262 31985 ft 323 kts 265°
2026-05-07 14:27 39.98560 -78.51119 31986 ft 324 kts 265°
2026-05-07 14:28 39.98697 -78.56979 31995 ft 323 kts 265°
2026-05-07 14:28 39.98831 -78.62841 31993 ft 323 kts 265°
2026-05-07 14:29 39.98961 -78.68666 32012 ft 324 kts 265°
2026-05-07 14:29 39.99089 -78.74525 31995 ft 323 kts 265°
2026-05-07 14:30 39.99214 -78.80393 31994 ft 323 kts 265°
2026-05-07 14:30 39.99335 -78.86217 32000 ft 323 kts 265°
2026-05-07 14:31 39.99439 -78.91369 31997 ft 323 kts 264°
2026-05-07 14:31 39.99556 -78.97218 31996 ft 323 kts 264°
2026-05-07 14:32 39.99669 -79.03069 32006 ft 323 kts 264°
2026-05-07 14:32 39.99780 -79.08918 31998 ft 322 kts 264°
2026-05-07 14:33 39.99887 -79.14760 32000 ft 322 kts 264°
2026-05-07 14:33 39.99991 -79.20611 32002 ft 323 kts 264°
2026-05-07 14:34 40.00093 -79.26461 32003 ft 323 kts 264°
2026-05-07 14:34 40.00191 -79.32329 32007 ft 324 kts 264°
2026-05-07 14:35 40.00287 -79.38152 32027 ft 324 kts 264°
2026-05-07 14:35 40.00380 -79.44014 32034 ft 324 kts 264°
2026-05-07 14:36 40.00470 -79.49873 32025 ft 323 kts 264°
2026-05-07 14:36 40.00556 -79.55732 32015 ft 323 kts 264°
2026-05-07 14:37 40.00640 -79.61623 32021 ft 323 kts 264°
2026-05-07 14:37 40.00751 -79.69690 32013 ft 323 kts 264°
2026-05-07 14:38 40.00827 -79.75542 32016 ft 323 kts 264°
2026-05-07 14:38 40.00900 -79.81401 32019 ft 323 kts 264°
2026-05-07 14:39 40.00971 -79.87222 32021 ft 323 kts 264°
2026-05-07 14:39 40.01038 -79.93077 32019 ft 323 kts 264°
2026-05-07 14:40 40.01103 -79.98933 32021 ft 323 kts 264°
2026-05-07 14:40 40.01165 -80.04792 32027 ft 323 kts 264°
2026-05-07 14:41 40.01224 -80.10648 32026 ft 323 kts 264°
2026-05-07 14:41 40.01280 -80.16505 32028 ft 323 kts 264°
2026-05-07 14:42 40.01332 -80.22369 32030 ft 324 kts 264°
2026-05-07 14:42 40.01380 -80.27847 32028 ft 323 kts 264°
2026-05-07 14:43 40.01419 -80.32746 32026 ft 324 kts 264°
2026-05-07 14:43 40.01464 -80.38604 32023 ft 324 kts 264°
2026-05-07 14:44 40.01506 -80.44461 32026 ft 324 kts 264°
2026-05-07 14:44 40.01545 -80.50363 32013 ft 324 kts 264°
2026-05-07 14:45 40.01581 -80.56231 32018 ft 326 kts 264°
2026-05-07 14:45 40.01614 -80.62134 32016 ft 326 kts 264°
2026-05-07 14:46 40.01644 -80.68041 32015 ft 326 kts 264°
2026-05-07 14:46 40.01672 -80.73995 32019 ft 327 kts 264°
2026-05-07 14:47 40.01694 -80.79166 32016 ft 325 kts 264°
2026-05-07 14:47 40.02038 -80.85079 32013 ft 329 kts 269°
2026-05-07 14:48 40.02610 -80.91008 32048 ft 330 kts 269°
2026-05-07 14:48 40.03189 -80.96980 32016 ft 333 kts 269°
2026-05-07 14:49 40.03770 -81.02975 32020 ft 333 kts 269°
2026-05-07 14:49 40.04342 -81.08942 32018 ft 334 kts 269°
2026-05-07 14:50 40.04917 -81.14949 32019 ft 334 kts 269°
2026-05-07 14:50 40.05488 -81.20965 32026 ft 334 kts 269°
2026-05-07 14:51 40.06056 -81.26983 32021 ft 334 kts 269°
2026-05-07 14:51 40.06624 -81.33039 32017 ft 339 kts 270°
2026-05-07 14:52 40.07196 -81.39153 32018 ft 339 kts 270°
2026-05-07 14:52 40.07764 -81.45270 32017 ft 339 kts 270°
2026-05-07 14:53 40.08329 -81.51397 32024 ft 340 kts 270°
2026-05-07 14:53 40.08888 -81.57485 32024 ft 340 kts 270°
2026-05-07 14:54 40.09447 -81.63617 32020 ft 340 kts 269°
2026-05-07 14:54 40.10005 -81.69797 32023 ft 347 kts 270°
2026-05-07 14:55 40.10572 -81.76052 32023 ft 347 kts 270°
2026-05-07 14:55 40.11132 -81.82319 32020 ft 347 kts 270°
2026-05-07 14:56 40.11690 -81.88581 32023 ft 347 kts 270°
2026-05-07 14:56 40.12191 -81.94243 32023 ft 347 kts 270°
2026-05-07 14:57 40.12657 -81.99549 32021 ft 347 kts 270°
2026-05-07 14:57 40.13206 -82.05815 32022 ft 347 kts 270°
2026-05-07 14:58 40.13751 -82.12092 32023 ft 347 kts 270°
2026-05-07 14:58 40.14293 -82.18368 32023 ft 347 kts 270°
2026-05-07 14:59 40.14832 -82.24647 32023 ft 348 kts 270°
2026-05-07 14:59 40.15365 -82.30886 32023 ft 348 kts 270°
2026-05-07 15:00 40.15895 -82.37167 32025 ft 348 kts 270°
2026-05-07 15:00 40.16427 -82.43501 32031 ft 356 kts 270°
2026-05-07 15:01 40.16967 -82.49913 32024 ft 354 kts 270°
2026-05-07 15:01 40.17495 -82.56298 32026 ft 354 kts 270°
2026-05-07 15:02 40.17896 -82.61146 32026 ft 354 kts 270°
2026-05-07 15:03 40.19449 -82.80212 32035 ft 357 kts 271°
2026-05-07 15:04 40.19972 -82.86721 32030 ft 360 kts 271°
2026-05-07 15:04 40.20494 -82.93246 32036 ft 361 kts 271°
2026-05-07 15:05 40.21010 -82.99773 32025 ft 361 kts 271°
2026-05-07 15:05 40.21524 -83.06307 32027 ft 361 kts 271°
2026-05-07 15:06 40.22034 -83.12841 32032 ft 361 kts 271°
2026-05-07 15:06 40.22542 -83.19385 32032 ft 363 kts 271°
2026-05-07 15:07 40.23048 -83.25968 32035 ft 364 kts 271°
2026-05-07 15:07 40.23551 -83.32560 32036 ft 364 kts 271°
2026-05-07 15:08 40.24050 -83.39148 32035 ft 364 kts 271°
2026-05-07 15:08 40.24543 -83.45694 32050 ft 364 kts 271°
2026-05-07 15:09 40.25035 -83.52292 32053 ft 364 kts 271°
2026-05-07 15:09 40.25524 -83.58905 32052 ft 366 kts 271°
2026-05-07 15:10 40.26012 -83.65539 32054 ft 366 kts 271°
2026-05-07 15:10 40.26495 -83.72174 32052 ft 366 kts 271°
2026-05-07 15:11 40.26975 -83.78805 32057 ft 366 kts 271°
2026-05-07 15:11 40.27450 -83.85440 32056 ft 366 kts 271°
2026-05-07 15:12 40.27923 -83.92084 32060 ft 366 kts 271°
2026-05-07 15:12 40.28392 -83.98739 32053 ft 367 kts 271°
2026-05-07 15:13 40.28745 -84.05405 32056 ft 365 kts 266°
2026-05-07 15:13 40.28523 -84.12000 32053 ft 365 kts 265°
2026-05-07 15:14 40.28311 -84.18640 32059 ft 365 kts 265°
2026-05-07 15:14 40.28082 -84.25281 32062 ft 365 kts 265°
2026-05-07 15:15 40.27854 -84.31925 32059 ft 365 kts 265°
2026-05-07 15:15 40.27621 -84.38572 32043 ft 365 kts 265°
2026-05-07 15:16 40.27503 -84.41905 31659 ft 367 kts 265°